Hillsdale, MI

3:37 PM EST on December 04, 2016 (GMT -0500)
Hillsdale Municipal

Weather History for KJYM - February, 2014

Change the Weather History Date:

Tuesday, February 11, 2014

  Actual Average Record
Temperature  
Mean Temperature 6 °F -  
Max Temperature 13 °F 32 °F 66 °F (1999)
Min Temperature 0 °F 14 °F -13 °F (1978)
Degree Days  
Heating Degree Days 58    
Moisture  
Dew Point -2 °F    
Average Humidity 65    
Maximum Humidity 79    
Minimum Humidity 50    
Precipitation  
Precipitation 0.00 in - - ()
Sea Level Pressure  
Sea Level Pressure 30.39 in    
Wind  
Wind Speed 5 mph (North)    
Max Wind Speed 12 mph    
Max Gust Speed -    
Visibility 10 miles    
Events Snow    
Averages and records for this station are not official NWS values.
T = Trace of Precipitation, MM = Missing Value Source: NWS Daily Summary

Daily Weather History Graph

Daily Weather History Graph

Search for Another Location

Airport or City:

Trip Planner

Search our weather history database for the weather conditions in past years. The results will help you decide how hot, cold, wet, or windy it might be!

Date:

Astronomy

Feb. 11, 2014 Rise Set
Actual Time 7:39 AM EST 6:06 PM EST
Civil Twilight 7:10 AM EST 6:35 PM EST
Nautical Twilight 6:37 AM EST 7:08 PM EST
Astronomical Twilight 6:05 AM EST 7:40 PM EST
Moon 3:24 PM EST (2/11) 5:17 AM EST (2/11)
Length of Visible Light 11h 24m
Length of Day
10h 26m
Waxing Gibbous, 90% of the Moon is Illuminated
Feb 11
Waxing Gibbous
Feb 14
Full
Feb 22
Last Quarter
Mar 1
New
Mar 8
First Quarter

Hourly Weather History & Observations

Time (EST) Temp. Windchill Dew Point Humidity Pressure Visibility Wind Dir Wind Speed Gust Speed Precip Events Conditions
12:15 AM 9.9 °F -1.1 °F 3.7 °F 76% 30.32 in 7.0 mi NNW 6.9 mph - N/A Snow Light Snow
12:34 AM 9.9 °F -2.2 °F 2.5 °F 72% 30.33 in 10.0 mi NNW 8.1 mph - N/A Snow Light Snow
12:54 AM 9.9 °F -3.1 °F 1.8 °F 70% 30.33 in 10.0 mi NNW 9.2 mph - N/A   Overcast
1:15 AM 9.3 °F -5.4 °F 1.0 °F 69% 30.33 in 10.0 mi NW 11.5 mph - N/A Snow Light Snow
1:34 AM 9.3 °F -1.7 °F 1.4 °F 70% 30.34 in 10.0 mi NW 6.9 mph - N/A Snow Light Snow
1:54 AM 9.3 °F -2.8 °F 1.8 °F 71% 30.34 in 10.0 mi NNW 8.1 mph - N/A Snow Light Snow
2:15 AM 9.3 °F -0.5 °F 1.8 °F 71% 30.34 in 10.0 mi NNW 5.8 mph - N/A Snow Light Snow
2:34 AM 9.3 °F -1.7 °F 1.8 °F 71% 30.35 in 10.0 mi NNW 6.9 mph - N/A Snow Light Snow
2:54 AM 9.3 °F -2.8 °F 1.2 °F 70% 30.34 in 10.0 mi NNW 8.1 mph - N/A   Overcast
3:15 AM 9.1 °F -1.9 °F 1.2 °F 70% 30.34 in 10.0 mi NNW 6.9 mph - N/A   Overcast
3:34 AM 9.0 °F -2.2 °F 1.2 °F 71% 30.34 in 10.0 mi NNW 6.9 mph - N/A Snow Light Snow
3:55 AM 8.8 °F -2.4 °F 1.0 °F 71% 30.34 in 10.0 mi NW 6.9 mph - N/A   Overcast
4:14 AM 8.2 °F -3.0 °F 0.9 °F 72% 30.34 in 10.0 mi North 6.9 mph - N/A Snow Light Snow
4:34 AM 7.5 °F -2.6 °F 0.3 °F 72% 30.34 in 10.0 mi North 5.8 mph - N/A Snow Light Snow
4:55 AM 7.2 °F -4.3 °F -0.2 °F 72% 30.34 in 10.0 mi NNW 6.9 mph - N/A   Overcast
5:14 AM 6.4 °F -3.9 °F -0.9 °F 72% 30.35 in 10.0 mi North 5.8 mph - N/A   Overcast
5:34 AM 6.3 °F -2.6 °F -1.1 °F 72% 30.36 in 10.0 mi North 4.6 mph - N/A   Overcast
5:54 AM 5.7 °F -3.2 °F -1.7 °F 72% 30.36 in 10.0 mi North 4.6 mph - N/A   Overcast
6:14 AM 4.6 °F -6.0 °F -2.4 °F 73% 30.36 in 10.0 mi North 5.8 mph - N/A   Overcast
6:35 AM 3.7 °F - -2.7 °F 74% 30.37 in 10.0 mi Calm Calm - N/A   Overcast
6:54 AM 4.3 °F -4.9 °F -2.0 °F 75% 30.38 in 10.0 mi North 4.6 mph - N/A   Mostly Cloudy
7:14 AM 4.3 °F -4.9 °F -2.9 °F 72% 30.38 in 10.0 mi North 4.6 mph - N/A   Mostly Cloudy
7:35 AM 4.1 °F -6.7 °F -2.9 °F 73% 30.39 in 10.0 mi North 5.8 mph - N/A   Overcast
7:54 AM 5.2 °F -1.9 °F -2.4 °F 71% 30.40 in 10.0 mi North 3.5 mph - N/A   Overcast
8:14 AM 5.5 °F - -2.2 °F 70% 30.41 in 10.0 mi Calm Calm - N/A   Mostly Cloudy
8:35 AM 6.1 °F - -2.0 °F 69% 30.41 in 10.0 mi Calm Calm - N/A   Scattered Clouds
8:54 AM 4.3 °F - -3.1 °F 71% 30.41 in 10.0 mi Calm Calm - N/A   Clear
9:15 AM 5.7 °F - -1.8 °F 71% 30.42 in 10.0 mi Calm Calm - N/A   Clear
9:34 AM 7.2 °F - -1.7 °F 67% 30.42 in 10.0 mi Calm Calm - N/A   Clear
9:54 AM 7.7 °F 1.0 °F -2.0 °F 65% 30.42 in 10.0 mi NNW 3.5 mph - N/A   Clear
10:15 AM 8.2 °F 1.6 °F -2.4 °F 62% 30.43 in 10.0 mi NNW 3.5 mph - N/A   Clear
10:34 AM 9.7 °F 1.4 °F -2.4 °F 58% 30.43 in 10.0 mi North 4.6 mph - N/A   Scattered Clouds
10:54 AM 9.9 °F 0.2 °F -2.6 °F 57% 30.44 in 10.0 mi NNW 5.8 mph - N/A   Scattered Clouds
11:15 AM 10.0 °F 1.8 °F -2.4 °F 57% 30.44 in 10.0 mi North 4.6 mph - N/A   Clear
11:34 AM 10.6 °F 4.3 °F -1.8 °F 57% 30.44 in 10.0 mi North 3.5 mph - N/A   Clear
11:55 AM 10.8 °F 4.5 °F -2.6 °F 55% 30.43 in 10.0 mi NNW 3.5 mph - N/A   Clear
12:14 PM 11.1 °F 3.1 °F -2.2 °F 55% 30.43 in 10.0 mi NE 4.6 mph - N/A   Clear
12:35 PM 11.7 °F 2.3 °F -1.7 °F 55% 30.43 in 10.0 mi NE 5.8 mph - N/A   Clear
12:55 PM 12.2 °F 6.1 °F -1.5 °F 54% 30.42 in 10.0 mi NNW 3.5 mph - N/A   Clear
1:14 PM 12.4 °F 3.1 °F -1.1 °F 55% 30.42 in 10.0 mi NW 5.8 mph - N/A   Clear
1:35 PM 13.1 °F 5.4 °F -0.9 °F 54% 30.42 in 10.0 mi NW 4.6 mph - N/A   Clear
1:54 PM 12.7 °F - -1.7 °F 53% 30.41 in 10.0 mi Calm Calm - N/A   Clear
2:15 PM 12.4 °F - -1.7 °F 54% 30.41 in 10.0 mi Calm Calm - N/A   Clear
2:34 PM 13.5 °F - -1.5 °F 51% 30.40 in 10.0 mi Calm Calm - N/A   Clear
2:54 PM 13.6 °F - -1.3 °F 52% 30.40 in 10.0 mi Calm Calm - N/A   Clear
3:15 PM 13.6 °F - -1.5 °F 51% 30.40 in 10.0 mi Calm Calm - N/A   Clear
3:34 PM 13.6 °F - -1.5 °F 51% 30.40 in 10.0 mi Calm Calm - N/A   Clear
3:55 PM 13.8 °F - -1.7 °F 50% 30.40 in 10.0 mi Calm Calm - N/A   Clear
4:15 PM 13.8 °F - -1.3 °F 51% 30.40 in 10.0 mi Calm Calm - N/A   Clear
4:34 PM 13.8 °F - -1.5 °F 51% 30.40 in 10.0 mi Calm Calm - N/A   Clear
4:55 PM 13.8 °F - -1.7 °F 50% 30.40 in 10.0 mi Calm Calm - N/A   Clear
5:14 PM 13.5 °F - -1.5 °F 51% 30.39 in 10.0 mi Calm Calm - N/A   Clear
5:35 PM 11.8 °F - -1.7 °F 55% 30.40 in 10.0 mi Calm Calm - N/A   Clear
5:54 PM 11.5 °F - -0.8 °F 58% 30.39 in 10.0 mi Calm Calm - N/A   Clear
6:14 PM 11.1 °F - -2.2 °F 55% 30.40 in 10.0 mi Calm Calm - N/A   Clear
6:35 PM 9.3 °F 1.0 °F -2.2 °F 60% 30.41 in 10.0 mi SSE 4.6 mph - N/A   Clear
6:54 PM 9.1 °F 2.6 °F -2.2 °F 60% 30.40 in 10.0 mi SSE 3.5 mph - N/A   Clear
7:15 PM 8.8 °F 2.2 °F -2.0 °F 62% 30.41 in 10.0 mi SSE 3.5 mph - N/A   Clear
7:35 PM 7.5 °F -1.1 °F -2.4 °F 64% 30.40 in 10.0 mi SSE 4.6 mph - N/A   Clear
7:54 PM 6.6 °F -2.2 °F -3.1 °F 64% 30.40 in 10.0 mi SSE 4.6 mph - N/A   Clear
8:15 PM 6.3 °F -4.1 °F -3.1 °F 65% 30.39 in 10.0 mi SSE 5.8 mph - N/A   Clear
8:34 PM 6.3 °F -2.6 °F -2.7 °F 67% 30.39 in 10.0 mi SSE 4.6 mph - N/A   Clear
8:55 PM 5.4 °F -3.6 °F -3.1 °F 68% 30.39 in 10.0 mi SSE 4.6 mph - N/A   Clear
9:14 PM 3.6 °F -5.7 °F -3.6 °F 72% 30.40 in 10.0 mi South 4.6 mph - N/A   Clear
9:34 PM 3.4 °F -5.9 °F -4.0 °F 71% 30.39 in 10.0 mi SSE 4.6 mph - N/A   Clear
9:54 PM 3.6 °F -5.7 °F -3.5 °F 73% 30.38 in 10.0 mi SE 4.6 mph - N/A   Clear
10:14 PM 2.1 °F -7.4 °F -4.9 °F 72% 30.38 in 10.0 mi SSE 4.6 mph - N/A   Clear
10:35 PM 2.1 °F - -4.5 °F 74% 30.38 in 10.0 mi Calm Calm - N/A   Clear
10:54 PM 0.5 °F -7.3 °F -4.7 °F 79% 30.38 in 10.0 mi South 3.5 mph - N/A   Clear
11:15 PM 1.0 °F -6.7 °F -4.0 °F 79% 30.39 in 10.0 mi SSE 3.5 mph - N/A   Clear
11:35 PM 1.6 °F -8.0 °F -4.2 °F 77% 30.38 in 10.0 mi SSE 4.6 mph - N/A   Clear
11:54 PM 0.3 °F -9.5 °F -4.7 °F 79% 30.38 in 10.0 mi South 4.6 mph - N/A   Clear